FENGYUN 1C DEB

Satellite information

Favourite Embed

Satellite Type and Status

DEBRISIN ORBIT

Key statistics

Satellite FENGYUN 1C DEB at a glance.

Uptime

9496

Days in orbit

Revolutions

≈ 14.4

Per day

Orbit

SSO

Sun Synchronous Orbit

Inclination

99.1

Latest

Satellite identification and parameters

Extended collection of information and parameters for FENGYUN 1C DEB.

Object identification

Identified? True

Debris? True

Object name: FENGYUN 1C DEB

International designator: 1999-025DMQ

Object number (NORAD): 35160

Object ID (CCSDS): 35160

Country: PEOPLES REPUBLIC OF CHINA (PRC)

Current information (Y/N): Y

RCS size: SMALL

Orbital parameters

Period: 100.325 minutes

Inclination: 99.1405 deg

SMA: 7152.105 km

Apoapsis: 901.951 km

Periapsis: 645.989 km

RAAN: 229.6889 deg

Eccentricy: 0.0178942

Argument of periapsis: 156.1054 deg

Mean anomaly: 204.8566 deg

Mean motion: 14.35330562 rev/day

Mean motion (dot): 0.00001871 rev/day2

B* drag term: 0.00055977 1/REarth

Two-line elements (TLE)

Creation date: May 9, 2025, 2:46 a.m.

Reference frame: TEME

Reference center: EARTH

Epoch: May 8, 2025, 12:23 p.m. UTC

TLE line 0: 0 FENGYUN 1C DEB

TLE line 1: 1 35160U 99025DMQ 25128.51642524 .00001871 00000-0 55977-3 0 9990

TLE line 2: 2 35160 99.1405 229.6889 0178942 156.1054 204.8566 14.35330562618000

Live tracking on map

Real-time ground track for satellite FENGYUN 1C DEB.

In-orbit conjunctions

A list of the most updated potential collisions computed for object FENGYUN 1C DEB.

Target Orbit TCA Probability of collision Miss distance Type
SL-8 R/B LEO 2025-05-04 13:23:15 0.0001567946 147.0 (m) ROCKET BODY
TANSEI 3 DEB HEO 2025-02-02 23:41:53 0.0001627534 238.0 (m) DEBRIS

Associated space launch

Chinese polar orbiting meteorological satellite

FENGYUN 1C DEB was lifted into orbit during the mission ‘Long March 4B | Feng Yun 1C’, on board a Long March 4B space rocket.

The launch took place on May 10, 1999, 1:33 a.m. from Launch Complex 7.

For more information about the launch, click the button.

Launch to space Long March 4B | Feng Yun 1C
Long March 4B | Feng Yun 1C

Agency: N/A

Status: Launch Successful

Launch date: May 10, 1999, 1:33 a.m. UTC

Rocket: Long March 4B

Launch pad: Launch Complex 7

Location: Taiyuan Satellite Launch Center, People's Republic of China

...

Latest news about this satellite

There are no fresh news available about this satellite. Check back as we update our databases every day.


Newsletter sign-up

Weekly statistics, charts and insights to help you stay on top of the space industry.